This is the latest recevied weather packets stored in our database for station/object OE6PLD-13. If no packets are shown the sender has not sent any weather packets the latest 10 day(s).
| Time | Temp. | Humidity | Pressure | Rain* | Wind** | Luminosity | Snow |
|---|---|---|---|---|---|---|---|
| 1777390899 | 19.44° C | 43% | 1012.5 hPa | 0.76 mm | - | 100 W/m² | - |
| 1777390716 | 19.44° C | 43% | 1012.3 hPa | 0.76 mm | - | 107 W/m² | - |
| 1777390532 | 19.44° C | 42% | 1012.1 hPa | 0.76 mm | - | 108 W/m² | - |
| 1777390349 | 19.44° C | 43% | 1012.2 hPa | 0.76 mm | - | 109 W/m² | - |
| 1777390166 | 19.44° C | 43% | 1012.3 hPa | 0.76 mm | - | 114 W/m² | - |
| 1777389982 | 19.44° C | 43% | 1012.2 hPa | 0.76 mm | - | 120 W/m² | - |
| 1777389799 | 19.44° C | 42% | 1012.4 hPa | 0.76 mm | - | 122 W/m² | - |
| 1777389616 | 19.44° C | 43% | 1012.2 hPa | 0.76 mm | - | 126 W/m² | - |
| 1777389431 | 20° C | 43% | 1012.1 hPa | 0.76 mm | - | 130 W/m² | - |
| 1777389247 | 20° C | 42% | 1012.3 hPa | 0.76 mm | - | 133 W/m² | - |
| 1777389064 | 19.44° C | 42% | 1012.2 hPa | 0.76 mm | - | 139 W/m² | - |
| 1777388881 | 19.44° C | 43% | 1012.4 hPa | 0.76 mm | - | 143 W/m² | - |
| 1777388697 | 20° C | 43% | 1012.3 hPa | 0.76 mm | - | 147 W/m² | - |
| 1777388514 | 20° C | 42% | 1012.2 hPa | 0.76 mm | - | 149 W/m² | - |
| 1777388331 | 20° C | 42% | 1012.4 hPa | 0.76 mm | - | 152 W/m² | - |
| 1777388147 | 20° C | 42% | 1012.1 hPa | 0.76 mm | - | 156 W/m² | - |
| 1777387964 | 20° C | 42% | 1012.2 hPa | 0.76 mm | - | 163 W/m² | - |
| 1777387781 | 20° C | 44% | 1012.4 hPa | 0.76 mm | - | 172 W/m² | - |
| 1777387597 | 20° C | 44% | 1012.3 hPa | 0.76 mm | - | 186 W/m² | - |
| 1777387414 | 20° C | 42% | 1012.3 hPa | 0.76 mm | - | 189 W/m² | - |
| 1777387230 | 19.44° C | 42% | 1012.2 hPa | 0.76 mm | - | 195 W/m² | - |
| 1777387047 | 19.44° C | 43% | 1012.3 hPa | 0.76 mm | - | 206 W/m² | - |
| 1777386864 | 20° C | 42% | 1012.6 hPa | 0.76 mm | - | 215 W/m² | - |
| 1777386680 | 20° C | 42% | 1012.3 hPa | 0.76 mm | - | 218 W/m² | - |
| 1777386497 | 20° C | 41% | 1012.5 hPa | 0.76 mm | - | 215 W/m² | - |
* Rain latest hour (hover to see other rain measurements)
** Current wind speed in m/s (hover to see current wind gust speed)